Regional Weather Roundup
Issued by NWS

Home | Current Version | Previous Version | Text Only | Print | Product List | Glossary On
Versions: 1 2 3 4 5 6 7 8 9 10 11 12 13 14 15 16 17 18 19 20 21 22 23 24 25 26 27 28 29 30 31 32 33 34 35 36 37 38 39 40 41 42 43 44 45 46 47 48 49 50
000
ASUS44 KFWD 182115
RWRTX
NORTH TEXAS HOURLY WEATHER ROUNDUP
NATIONAL WEATHER SERVICE FORT WORTH TX
400 PM CDT FRI APR 18 2014

NOTE: "FAIR" INDICATES FEW OR NO CLOUDS BELOW 12,000 FEET WITH NO
SIGNIFICANT WEATHER AND/OR OBSTRUCTIONS TO VISIBILITY.

TXZ118-119-182200-
DALLAS/FORT WORTH METROPLEX

CITY           SKY/WX    TMP DP  RH WIND       PRES   REMARKS
DFW AIRPORT    MOSUNNY   75  48  38 VRB5      30.14F
DALLAS LOVE    MOSUNNY   75  43  31 VRB5      30.14F
FTW MEACHAM    MOSUNNY   74  50  42 VRB3      30.15F
DAL-EXECUTIVE  SUNNY     77  46  33 E8        30.14F
FTW-ALLIANCE   MOSUNNY   72  48  42 CALM      30.15F
FTW-NAS-JRB    PTSUNNY   76  46  34 VRB7      30.19F
FTW-SPINKS     PTSUNNY   75  48  38 E3        30.16F
ARLINGTON      MOSUNNY   76  48  37 VRB5      30.15F
GRAND PRAIRIE  SUNNY     75  46  35 E3        30.17F
MESQUITE       SUNNY     73  46  38 MISG      30.15F
LANCASTER      SUNNY     74  46  37 CALM      30.15F
$$

TXZ091>094-102>105-117-120-121-131>134-182200-
NORTH CENTRAL TEXAS

CITY           SKY/WX    TMP DP  RH WIND       PRES   REMARKS
SHRMAN/DENISON SUNNY     73  40  30 CALM      30.17F
GAINESVILLE    SUNNY     73  46  37 NE5       30.18F
BOWIE          PTSUNNY   71  49  45 CALM      30.16F
BRIDGEPORT     PTSUNNY   70  49  46 CALM      30.18F
DECATUR        MOSUNNY   70  48  44 SE6       30.16F
DENTON         SUNNY     75  48  38 N6        30.15F
MCKINNEY       SUNNY     74  47  38 E7        30.15F
GREENVILLE     SUNNY     73  41  31 NE5       30.15F
ROCKWALL       SUNNY     77  46  33 NE7       30.14F
TERRELL        SUNNY     74  45  35 E8        30.15F
WAXAHACHIE     MOSUNNY   73  48  41 N6        30.16F
CLEBURNE       PTSUNNY   73  52  46 CALM      30.18F
GRANBURY       CLOUDY    76  51  41 E7        30.17F
$$

TXZ083>090-098>101-113>116-127>130-139>142-154-155-182200-
WESTERN NORTH TEXAS

CITY           SKY/WX    TMP DP  RH WIND       PRES   REMARKS
WICHITA FALLS  MOSUNNY   71  51  49 S7        30.15F
WF-KICKAPOO    SUNNY     70  49  47 SE3       30.17F
VERNON         CLOUDY    66  51  58 SW6       30.19F
ABILENE        MOSUNNY   72  47  40 S5        30.16F
ABILENE-DYESS  SUNNY     73  48  41 E8        30.15F
BRECKENRIDGE   CLOUDY    70  49  47 CALM      30.17F
GRAHAM         PTSUNNY   71  49  45 CALM      30.16F
MINERAL WELLS  PTSUNNY   72  52  49 VRB3      30.15F
STEPHENVILLE   PTSUNNY   71  49  45 E5        30.19F
COMANCHE       MOSUNNY   71  52  49 S3        30.17F
BROWNWOOD      PTSUNNY   73  50  43 SE10      30.15F
COLEMAN        MOSUNNY   74  45  34 CALM      30.15F
BRADY          MOSUNNY   73  46  38 VRB6      30.14F
$$

TXZ143>147-156>162-174-175-182200-
CENTRAL TEXAS

CITY           SKY/WX    TMP DP  RH WIND       PRES   REMARKS
WACO           MOSUNNY   71  52  50 CALM      30.15F
WACO-TSTC      PTSUNNY   73  52  46 NE5       30.15F
WACO-MCGREGOR  PTSUNNY   72  50  46 N6        30.16F
HILLSBORO      PTSUNNY   74  53  46 NE6       30.15F
CORSICANA      SUNNY     76  49  38 N8        30.14F
MEXIA          MOSUNNY   73  52  47 N3        30.13F
HEARNE         SUNNY     76  52  42 E5        30.13F
CAMERON        PTSUNNY   74  53  48 CALM      30.13F
TEMPLE         MOSUNNY   75  54  46 NE8       30.15F
KILLEEN        PTSUNNY   73  52  46 NE8       30.14F
KILLEEN-SKYLRK SUNNY     73  52  46 CALM      30.14F
FORT HOOD      CLOUDY    75  52  44 NE7       30.14F
GATESVILLE     MOSUNNY   73  52  46 CALM      30.17F
HAMILTON       MOSUNNY   72  52  49 E3        30.17F
LAMPASAS       PTSUNNY   74  56  53 N5        30.14F
$$

TXZ095>097-106>112-122>126-135>138-148>153-164>167-182200-
EAST TEXAS

CITY           SKY/WX    TMP DP  RH WIND       PRES   REMARKS
PARIS          SUNNY     73  46  38 E6        30.16F
SULPHUR SPRNGS SUNNY     74  43  33 E3        30.17F
CLARKSVILLE    SUNNY     74  43  32 CALM      30.15F
MOUNT PLEASANT PTSUNNY   74  48  40 NE9       30.16F
GILMER         MOSUNNY   75  48  38 E5        30.15F
MINEOLA        SUNNY     73  43  33 E3        30.15F
TYLER          SUNNY     75  45  34 E8        30.13F
LONGVIEW       MOSUNNY   74  49  41 NE9G16    30.12F
MARSHALL       MOSUNNY   73  49  43 E6        30.15F
ATHENS         SUNNY     73  46  38 NE7       30.12F
PALESTINE      SUNNY     77  45  32 CALM      30.15F
JACKSONVILLE   MOSUNNY   71  46  39 NE7       30.15F
HENDERSON      MOSUNNY   75  45  33 NE3       30.14F
NACOGDOCHES    MOSUNNY   75  52  43 N8        30.13F
LUFKIN         MOSUNNY   79  50  36 N7        30.12F
$$

SUPPLEMENTAL OBSERVATIONS (CENTRAL)

CITY           SKY/WX    TMP DP  RH WIND       PRES   REMARKS
LAKE TEXOMA      N/A     72  39  30 E2          N/A
CADDO GRASSLND   N/A     77  43  29 SE6         N/A
PAT MAYSE LAKE   N/A     73  39  29 E3          N/A
GREENVILLE       N/A     73  43  33 E8          N/A
CEDAR HILL       N/A     79  50  36 NE3G12      N/A
ATHENS           N/A     79  46  31 E5          N/A
PALESTINE        N/A     77  50  38 NE6         N/A
LAKE LIMESTONE   N/A     75  50  41 NE5G15      N/A
MCGREGOR         N/A     79  54  41 E5          N/A
TEMPLE           N/A     77  52  41 NE8G16      N/A
$$

SUPPLEMENTAL OBSERVATIONS (WEST)

CITY           SKY/WX    TMP DP  RH WIND       PRES   REMARKS
MILLERS CREEK    N/A     70  50  49 SE8         N/A
POSSUM KINGDOM   N/A     72  50  46 E5          N/A
LBJ GRASSLAND    N/A     72  50  46 E6          N/A
GRANBURY         N/A     73  50  43 E6          N/A
COMANCHE         N/A     72  50  46 E6          N/A
HAMBY            N/A     72  46  40 SE3G13      N/A
IVIE RESERVOIR   N/A     75  45  33 E6G15       N/A
COLORADO BEND    N/A     75  52  43 SE8         N/A
$$

SUPPLEMENTAL OBSERVATIONS (EAST)

CITY           SKY/WX    TMP DP  RH WIND       PRES   REMARKS
CLARKSVILLE      N/A     75  45  33 NE3G13      N/A
GILMER           N/A     75  46  35 E3G13       N/A
HENDERSON        N/A     73  48  40 E10         N/A
LUFKIN           N/A     75  50  41 MISG        N/A
N SABINE NF      N/A     77  55  47 MISG        N/A
S SABINE NF      N/A     73  55  53 NE5         N/A
$$

SUPPLEMENTAL OBSERVATIONS ARE A COLLECTION OF AUTOMATED INSTRUMENTS
THAT ARE MAINTAINED BY A VARIETY OF FEDERAL AND STATE AGENCIES.
CERTAIN ELEMENTS...SUCH AS HUMIDITY VALUES AND SUSTAINED WIND
SPEEDS...MAY BE APPROXIMATED.




USA.gov is the U.S. government's official web portal to all federal, state and local government web resources and services.